KD8ZLZ Weather Reports


time (UTC)temp
F
wind
direction
speed
knots
gust
knots
rain 1hr
in
rain 24hr
in
rain mn
in
humidity
%
barometer
mb
20260502210552 48 306 4.3 8.7 0.00 0.00 0.00 39 1016.7
20260502210031 48 309 3.5 7.8 0.00 0.00 0.00 39 1017.0
20260502205531 48 289 4.3 7.8 0.00 0.00 0.00 39 1017.0
20260502205031 49 291 3.5 6.1 0.00 0.00 0.00 40 1017.0
20260502204531 49 255 3.5 7.8 0.00 0.00 0.00 39 1017.0
20260502204031 49 240 3.5 7.0 0.00 0.00 0.00 39 1017.0
20260502203531 48 271 4.3 6.1 0.00 0.00 0.00 39 1017.0
20260502203031 48 253 3.5 6.1 0.00 0.00 0.00 40 1017.0
20260502202531 48 248 4.3 7.8 0.00 0.00 0.00 40 1017.0
20260502202031 48 241 4.3 9.6 0.00 0.00 0.00 38 1017.4
20260502201551 48 245 2.6 6.1 0.00 0.00 0.00 40 1017.4
20260502201031 48 289 3.5 5.2 0.00 0.00 0.00 38 1017.4
20260502200531 48 290 5.2 9.6 0.00 0.00 0.00 39 1017.4
20260502200052 48 279 4.3 7.0 0.00 0.00 0.00 38 1017.4
20260502195551 48 281 4.3 7.0 0.00 0.00 0.00 39 1017.4
20260502195051 48 292 5.2 8.7 0.00 0.00 0.00 38 1017.7
20260502194531 48 330 3.5 7.8 0.00 0.00 0.00 38 1017.7
20260502194031 48 301 3.5 7.8 0.00 0.00 0.00 37 1017.7
20260502193532 49 297 4.3 8.7 0.00 0.00 0.00 38 1017.8
20260502193111 49 269 3.5 7.8 0.00 0.00 0.00 38 1017.8
20260502192531 49 281 3.5 6.1 0.00 0.00 0.00 39 1017.8
20260502192051 49 274 2.6 5.2 0.00 0.00 0.00 37 1017.8
20260502191531 49 231 2.6 5.2 0.00 0.00 0.00 38 1017.8
20260502191031 48 234 3.5 7.0 0.00 0.00 0.00 38 1018.1
20260502190531 48 266 4.3 9.6 0.00 0.00 0.00 38 1018.0
20260502190052 48 276 4.3 7.8 0.00 0.00 0.00 39 1018.1
20260502185531 48 247 3.5 6.1 0.00 0.00 0.00 40 1018.1
20260502185031 48 235 4.3 7.0 0.00 0.00 0.00 39 1018.1
20260502184532 48 215 3.5 6.1 0.00 0.00 0.00 39 1018.1
20260502184031 48 220 3.5 6.1 0.00 0.00 0.00 39 1018.1
20260502183531 47 236 4.3 10.4 0.00 0.00 0.00 40 1018.0
20260502183031 47 251 3.5 7.0 0.00 0.00 0.00 39 1018.1
20260502182532 47 224 1.7 7.0 0.00 0.00 0.00 39 1018.1
20260502182112 47 260 3.5 6.1 0.00 0.00 0.00 39 1018.1
20260502181531 47 265 3.5 6.1 0.00 0.00 0.00 41 1018.4
20260502181031 47 257 3.5 11.3 0.00 0.00 0.00 41 1018.4
20260502180531 47 250 2.6 4.3 0.00 0.00 0.00 40 1018.4
20260502164051 46 248 2.6 3.5 0.00 0.00 0.00 41 1018.8
20260502163531 45 313 2.6 6.1 0.00 0.00 0.00 41 1018.8
20260502163031 46 325 3.5 6.1 0.00 0.00 0.00 42 1018.8
20260502162531 45 316 4.3 7.0 0.00 0.00 0.00 42 1018.8
20260502162031 46 304 1.7 6.1 0.00 0.00 0.00 41 1018.8
20260502161612 45 260 2.6 5.2 0.00 0.00 0.00 41 1018.8
20260502161031 46 291 3.5 6.1 0.00 0.00 0.00 42 1018.8
20260502160533 45 329 3.5 6.1 0.00 0.00 0.00 43 1018.4
20260502152031 45 359 3.5 7.8 0.00 0.07 0.00 46
20260502151531 45 11 3.5 8.7 0.00 0.07 0.00 46
20260502151031 45 18 3.5 9.6 0.00 0.07 0.00 45
20260502150531 44 337 3.5 7.0 0.00 0.07 0.00 48
20260501225031 48 321 2.6 5.2 2.19 2.51 2.50 55 1015.5
20260501224530 48 299 4.3 5.2 2.19 2.51 2.50 54 1015.1
20260501224051 48 350 3.5 3.5 2.19 2.51 2.50 55 1015.1
20260501222531 50 341 3.5 6.1 1.46 1.78 1.77 50 1015.1
20260501211530 50 322 4.3 7.8 0.00 0.32 0.31 49 1014.5